Regional Weather Roundup
Issued by NWS Newport/Morehead, NC

Current Version | Previous Version | Graphics & Text | Print | Product List | Glossary Off
Versions: 1 2 3 4 5 6 7 8 9 10 11 12 13 14 15 16 17 18 19 20 21 22 23 24 25 26 27 28 29 30 31 32 33 34 35 36 37 38 39 40 41 42 43 44 45 46 47 48

000
ASUS42 KMHX 240622
RWRMHX
WEATHER ROUNDUP FOR EASTERN NORTH CAROLINA
NATIONAL WEATHER SERVICE NEWPORT/MOREHEAD CITY NC
200 AM EDT THU APR 24 2014

NOTE: "FAIR" INDICATES FEW OR NO CLOUDS BELOW 12,000 FEET
WITH NO SIGNIFICANT WEATHER AND/OR OBSTRUCTIONS TO VISIBILITY

NCZ015>017-031-032-045>047-102-103-240700-
NORTH COAST

CITY           SKY/WX    TMP DP  RH WIND       PRES   REMARKS
EDENTON        FAIR      51  38  59 N8        29.99S
ELIZABETH CITY FAIR      49  36  61 NW6       30.00R
KITTY HAWK     FAIR      53  40  60 N9        29.97S
MANTEO         FAIR      53  39  58 N10G17    29.99R

$$

NCZ045>047-081-094-103-104-240700-
CENTRAL COAST

CITY           SKY/WX    TMP DP  RH WIND       PRES   REMARKS
FRISCO         FAIR      51  43  74 NE5       29.98S
SWANQUARTER      N/A     48 N/A N/A NE2       29.97R

$$

NCZ095-097-098-100-101-240700-
SOUTHERN COAST

CITY           SKY/WX    TMP DP  RH WIND       PRES   REMARKS
BEAUFORT       FAIR      54  50  86 NE3       29.98R
CEDAR ISLAND     N/A     59 N/A N/A NE8       30.00S
JACKSONVILLE   FAIR      54  40  59 N8        29.99R
NEWPORT          N/A     46  45  93 CALM        N/A
PINEY ISLAND   FAIR      60  50  69 E6        29.98R
WILMINGTON     FAIR      49  42  77 CALM      29.97S


$$

NCZ011>013-027>030-043-044-078>080-089-090>093-098-240700-
COASTAL PLAIN

CITY           SKY/WX    TMP DP  RH WIND       PRES   REMARKS
AHOSKIE        FAIR      44  37  78 CALM      30.01S
CLINTON        FAIR      51  44  78 CALM      30.01R
ELIZABETHTOWN  FAIR      50  41  73 CALM      29.99S
GOLDSBORO      FAIR      55  36  49 N3        30.00R
GREENVILLE     FAIR      45  41  87 CALM      30.03R
HAVELOCK       FAIR      53  42  66 CALM      30.00R
KENANSVILLE    FAIR      52  37  56 CALM      30.01R
KINSTON        FAIR      51  39  63 N5        30.02R
NEW BERN       FAIR      52  42  69 CALM      30.01R
RICHLANDS      FAIR      50  48  93 N7        30.01R
ROANOKE RAPIDS NOT AVBL
ROCKY MOUNT    FAIR      48  35  60 NE3       30.02R
WASHINGTON     FAIR      53  41  65 N5        30.01R
WHITEVILLE     FAIR      49  44  84 CALM      29.98S

$$

AMZ130-135-150-152-154-156-158-170-250-252-270-ANZ085-086-088-633-658-670-240700-
MARINE OBSERVATIONS

STATION/POSITION TIME  TEMP    WIND        PRES    WAVE   SWELL
                       AIR SEA DIR/SP/G            HT/PER HT/PER
                 (UTC) (F)     (DEG/KT/KT) (MB)    (FT/S) (FT/S)
CHESAPEAKE LIGHT 0600   51     350/ 27/ 30 1015.5
BUOY 44014       0600   51 49  340/ 17/ 21 1013.9    4/ 5   2/15
DUCK             0600   54 51   10/ 26/ 31 1013.7
2E DUCK          0600      50                N/A     3/ 5   2/14
OREGON INLET     0600   53 54  340/ 10/ 13 1015.3
BUOY 44095       0600      50                N/A     4/ 9   2/14
HATTERAS CG      0600   57 62   40/  5/  7 1015.4
DIAMOND BUOY     0600   61 74  360/ 16/ 19 1014.7    4/ 8   3/ 8
CAPE LOOKOUT     0600   61      30/  9/ 12 1014.9
BEAUFORT LAB     0600   56 63   30/  4/  6 1014.6
30 SE NEW RIVER  0600   67 69  280/  2/  4 1014.9    3/ 9   3/ 9
5 SE WRIGHTSVILL 0600   63 63   30/  4/  6 1014.6
FRYING PAN BUOY  0600   68 68  100/  8/ 10 1014.2    2/ 8   2/ 8
BUOY 41001       NOT AVBL
BUOY 41002       NOT AVBL
BUOY 41004       0600   67 69  340/  2/  2 1013.2    2/ 8   2/ 8

$$



USA.gov is the U.S. government's official web portal to all federal, state and local government web resources and services.